^^
Station Historical Data
Daily Summary for March 27, 2017 Units:  English    Metric   Both
« Previous Day
Next Day »
Daily Weekly Monthly Yearly Custom
  High: Low: Average:
Temperature: 54.7 °F 38.5 °F 44.8 °F
Dew Point: 50.3 °F 36.9 °F 42.8 °F
Humidity: 96 % 84 % 93 %
Wind Speed: 5.0 mph 0.0 mph 0.5 mph
Wind Gust: 6.9 mph - -
Wind:- - SSE
Pressure: 30.28 in 29.97 in -
Precipitation: 0.27 in    
Historical Graphs
 
 
Tabular Data for March 27, 2017
Time Temperature Dew Point Pressure Wind Wind Speed Wind Gust Humidity Rainfall Rate (Hourly) solar Conditions
00:02 38.5 °F 36.9 °F 30.28 in Calm   1.2 mph 94 % 0.00 in 0.0 W/m2 RA
00:07 38.5 °F 36.9 °F 30.28 in NE 1.4 mph 2.0 mph 94 % 0.00 in 0.0 W/m2 RA
00:12 38.5 °F 36.9 °F 30.27 in NE 1.4 mph 2.3 mph 94 % 0.00 in 0.0 W/m2 CLR
00:17 38.5 °F 36.9 °F 30.28 in NE 0.3 mph 2.0 mph 94 % 0.00 in 0.0 W/m2 CLR
00:22 38.5 °F 36.9 °F 30.27 in NE 1.2 mph 3.5 mph 94 % 0.00 in 0.0 W/m2 CLR
00:27 38.5 °F 36.9 °F 30.27 in Calm     94 % 0.00 in 0.0 W/m2 CLR
00:32 38.6 °F 37.0 °F 30.26 in NE 1.1 mph 3.5 mph 94 % 0.00 in 0.0 W/m2 CLR
00:37 38.5 °F 36.9 °F 30.26 in Calm     94 % 0.00 in 0.0 W/m2 CLR
00:42 38.6 °F 37.0 °F 30.26 in Calm     94 % 0.00 in 0.0 W/m2 CLR
00:47 38.6 °F 37.0 °F 30.26 in Calm     94 % 0.00 in 0.0 W/m2 CLR
00:52 38.6 °F 37.0 °F 30.25 in East 1.6 mph 2.0 mph 94 % 0.00 in 0.0 W/m2 CLR
00:58 38.6 °F 37.0 °F 30.25 in East 1.2 mph 4.0 mph 94 % 0.00 in 0.0 W/m2 CLR
01:03 38.6 °F 37.0 °F 30.25 in Calm     94 % 0.00 in 0.0 W/m2 CLR
01:08 38.6 °F 37.0 °F 30.24 in NE 1.6 mph 4.0 mph 94 % 0.00 in 0.0 W/m2 CLR
01:13 38.5 °F 36.9 °F 30.25 in ENE 2.0 mph 3.5 mph 94 % 0.00 in 0.0 W/m2 CLR
01:18 38.6 °F 37.0 °F 30.25 in Calm   2.3 mph 94 % 0.00 in 0.0 W/m2 CLR
01:23 38.5 °F 36.9 °F 30.24 in East 0.4 mph 3.5 mph 94 % 0.00 in 0.0 W/m2 CLR
01:28 38.6 °F 37.0 °F 30.24 in Calm   3.5 mph 94 % 0.00 in 0.0 W/m2 CLR
01:33 38.6 °F 37.0 °F 30.24 in Calm   2.3 mph 94 % 0.00 in 0.0 W/m2 CLR
01:38 38.6 °F 37.0 °F 30.23 in NE 2.4 mph 2.4 mph 94 % 0.01 in 0.0 W/m2 RA
01:43 38.6 °F 37.0 °F 30.23 in Calm     94 % 0.01 in 0.0 W/m2 RA
01:48 38.6 °F 37.0 °F 30.23 in Calm   2.3 mph 94 % 0.01 in 0.0 W/m2
01:53 38.6 °F 37.0 °F 30.23 in ENE 0.6 mph 1.0 mph 94 % 0.01 in 0.0 W/m2 CLR
01:58 38.7 °F 37.1 °F 30.22 in ENE 0.3 mph 3.5 mph 94 % 0.01 in 0.0 W/m2 CLR
02:03 38.7 °F 37.1 °F 30.22 in Calm   1.0 mph 94 % 0.01 in 0.0 W/m2 CLR
02:08 38.7 °F 37.1 °F 30.22 in Calm     94 % 0.02 in 0.0 W/m2 RA
02:13 38.7 °F 37.1 °F 30.21 in ENE 0.6 mph 3.5 mph 94 % 0.02 in 0.0 W/m2 RA
02:18 38.7 °F 37.1 °F 30.21 in Calm     94 % 0.02 in 0.0 W/m2
02:23 38.7 °F 37.1 °F 30.21 in NE 0.4 mph 1.2 mph 94 % 0.02 in 0.0 W/m2 CLR
02:28 38.7 °F 37.1 °F 30.20 in Calm     94 % 0.02 in 0.0 W/m2 CLR
02:33 38.7 °F 37.1 °F 30.20 in Calm     94 % 0.02 in 0.0 W/m2 CLR
02:38 38.7 °F 37.1 °F 30.20 in NE 0.3 mph 2.3 mph 94 % 0.01 in 0.0 W/m2 CLR
02:43 38.8 °F 37.5 °F 30.20 in NE 0.2 mph 2.3 mph 95 % 0.01 in 0.0 W/m2 CLR
02:48 38.7 °F 37.4 °F 30.20 in NE 0.9 mph 2.3 mph 95 % 0.01 in 0.0 W/m2 CLR
02:53 38.7 °F 37.4 °F 30.19 in ENE 0.4 mph 2.3 mph 95 % 0.01 in 0.0 W/m2 CLR
02:58 38.8 °F 37.5 °F 30.19 in Calm     95 % 0.01 in 0.0 W/m2 CLR
03:03 38.8 °F 37.5 °F 30.19 in Calm     95 % 0.01 in 0.0 W/m2 CLR
03:08 38.9 °F 37.6 °F 30.19 in Calm     95 % 0.01 in 0.0 W/m2 RA
03:13 38.9 °F 37.6 °F 30.18 in ENE 0.6 mph 2.3 mph 95 % 0.01 in 0.0 W/m2 RA
03:18 38.9 °F 37.6 °F 30.18 in Calm     95 % 0.01 in 0.0 W/m2
03:23 38.9 °F 37.6 °F 30.18 in Calm     95 % 0.01 in 0.0 W/m2 CLR
03:28 38.9 °F 37.6 °F 30.18 in ENE 0.3 mph 3.0 mph 95 % 0.02 in 0.0 W/m2 RA
03:33 39.0 °F 37.7 °F 30.18 in Calm     95 % 0.02 in 0.0 W/m2 RA
03:38 38.9 °F 37.6 °F 30.17 in Calm     95 % 0.02 in 0.0 W/m2
03:43 38.9 °F 37.6 °F 30.17 in Calm     95 % 0.02 in 0.0 W/m2 CLR
03:48 39.0 °F 37.7 °F 30.17 in NE 0.3 mph 2.0 mph 95 % 0.02 in 0.0 W/m2 CLR
03:53 39.0 °F 37.7 °F 30.17 in Calm     95 % 0.02 in 0.0 W/m2 CLR
03:58 39.0 °F 37.7 °F 30.16 in East 1.0 mph 2.3 mph 95 % 0.02 in 0.0 W/m2 CLR
04:03 39.0 °F 37.7 °F 30.15 in NE 3.0 mph 3.5 mph 95 % 0.02 in 0.0 W/m2 CLR
04:08 39.1 °F 37.8 °F 30.16 in Calm     95 % 0.01 in 0.0 W/m2 CLR
04:13 39.0 °F 37.7 °F 30.16 in Calm     95 % 0.01 in 0.0 W/m2 CLR
04:18 39.0 °F 37.7 °F 30.16 in Calm     95 % 0.01 in 0.0 W/m2 CLR
04:23 39.1 °F 37.8 °F 30.15 in Calm     95 % 0.01 in 0.0 W/m2 CLR
04:28 39.0 °F 37.7 °F 30.15 in Calm     95 % 0.01 in 0.0 W/m2 RA
04:34 39.0 °F 37.7 °F 30.15 in Calm     95 % 0.01 in 0.0 W/m2 RA
04:39 39.1 °F 37.8 °F 30.15 in Calm     95 % 0.01 in 0.0 W/m2
04:44 39.1 °F 37.8 °F 30.15 in Calm     95 % 0.02 in 0.0 W/m2 RA
04:49 39.1 °F 37.8 °F 30.15 in Calm     95 % 0.02 in 0.0 W/m2 RA
04:50 39.1 °F 37.8 °F 30.14 in Calm     95 % 0.00 in 0.0 W/m2 RA
04:55 39.1 °F 37.8 °F 30.14 in Calm     95 % 0.00 in 0.0 W/m2
05:00 39.1 °F 37.8 °F 30.14 in Calm     95 % 0.03 in 0.0 W/m2 RA
05:05 39.1 °F 37.8 °F 30.14 in Calm     95 % 0.04 in 0.0 W/m2 RA
05:10 39.1 °F 37.8 °F 30.14 in Calm     95 % 0.04 in 0.0 W/m2 RA
05:15 39.1 °F 37.8 °F 30.14 in Calm     95 % 0.05 in 0.0 W/m2 RA
05:20 39.0 °F 37.7 °F 30.14 in ESE 1.2 mph 2.3 mph 95 % 0.05 in 0.0 W/m2 RA
05:25 39.0 °F 37.7 °F 30.13 in Calm     95 % 0.05 in 0.0 W/m2
05:30 39.0 °F 37.7 °F 30.13 in Calm     95 % 0.05 in 0.0 W/m2 RA
05:35 39.0 °F 37.7 °F 30.13 in Calm     95 % 0.05 in 0.0 W/m2 RA
05:40 39.0 °F 37.7 °F 30.13 in Calm   1.2 mph 95 % 0.06 in 0.0 W/m2 RA
05:45 39.0 °F 37.7 °F 30.12 in ENE 2.1 mph 3.5 mph 95 % 0.07 in 0.0 W/m2 RA
05:50 39.1 °F 37.8 °F 30.13 in NE 2.7 mph 3.5 mph 95 % 0.08 in 0.0 W/m2 RA
05:55 39.0 °F 37.7 °F 30.13 in Calm     95 % 0.10 in 0.0 W/m2 RA
06:00 39.1 °F 37.8 °F 30.13 in Calm   1.2 mph 95 % 0.10 in 0.0 W/m2 RA
06:05 39.1 °F 37.8 °F 30.12 in Calm     95 % 0.10 in 0.0 W/m2 RA
06:10 39.1 °F 37.8 °F 30.13 in Calm     95 % 0.10 in 0.0 W/m2 RA
06:15 39.1 °F 37.8 °F 30.13 in Calm     95 % 0.09 in 0.0 W/m2
06:20 39.1 °F 37.8 °F 30.13 in Calm     95 % 0.09 in 0.0 W/m2 CLR
06:25 39.1 °F 37.8 °F 30.13 in Calm     95 % 0.09 in 0.0 W/m2 CLR
06:30 39.1 °F 37.8 °F 30.13 in Calm     95 % 0.09 in 0.0 W/m2 RA
06:35 39.2 °F 37.9 °F 30.13 in Calm     95 % 0.09 in 0.0 W/m2 RA
06:40 39.1 °F 37.8 °F 30.13 in Calm     95 % 0.08 in 0.0 W/m2
06:45 39.1 °F 37.8 °F 30.12 in Calm     95 % 0.07 in 0.0 W/m2 RA
06:50 39.1 °F 37.8 °F 30.12 in Calm     95 % 0.08 in 0.0 W/m2 RA
06:55 39.2 °F 37.9 °F 30.12 in Calm     95 % 0.08 in 0.0 W/m2 RA
07:00 39.3 °F 38.0 °F 30.12 in NNE 0.9 mph 3.5 mph 95 % 0.08 in 0.0 W/m2 RA
07:05 39.4 °F 38.1 °F 30.12 in NNE 1.4 mph 2.3 mph 95 % 0.07 in 0.0 W/m2 RA
07:10 39.3 °F 38.0 °F 30.12 in NNE 2.2 mph 3.5 mph 95 % 0.07 in 0.0 W/m2
07:15 39.4 °F 38.1 °F 30.12 in Calm     95 % 0.07 in 0.0 W/m2
07:20 39.4 °F 38.1 °F 30.13 in Calm     95 % 0.07 in 5.0 W/m2
07:25 39.4 °F 38.1 °F 30.13 in NNE 1.4 mph 2.3 mph 95 % 0.07 in 5.0 W/m2
07:30 39.4 °F 38.1 °F 30.12 in NNE 0.3 mph 2.3 mph 95 % 0.06 in 7.0 W/m2
07:35 39.4 °F 38.1 °F 30.12 in Calm     95 % 0.06 in 14.0 W/m2
07:40 39.5 °F 38.5 °F 30.13 in NNE 1.3 mph 3.5 mph 96 % 0.06 in 19.0 W/m2 BKN
07:45 39.5 °F 38.5 °F 30.13 in NNE 1.6 mph 2.3 mph 96 % 0.05 in 14.0 W/m2 OVC
07:50 39.5 °F 38.5 °F 30.13 in Calm     96 % 0.03 in 18.0 W/m2 OVC
07:55 39.6 °F 38.6 °F 30.13 in Calm     96 % 0.01 in 39.0 W/m2 BKN
08:00 39.7 °F 38.7 °F 30.13 in NNE 1.2 mph 3.5 mph 96 % 0.00 in 53.0 W/m2 BKN
08:05 39.8 °F 38.8 °F 30.12 in Calm     96 % 0.00 in 37.0 W/m2 BKN
08:10 39.8 °F 38.5 °F 30.12 in NNE 0.3 mph 1.2 mph 95 % 0.01 in 46.0 W/m2 RA
08:15 39.9 °F 38.6 °F 30.12 in Calm     95 % 0.01 in 30.0 W/m2 RA
08:20 39.8 °F 38.5 °F 30.12 in Calm     95 % 0.01 in 32.0 W/m2 OVC
08:25 39.8 °F 38.5 °F 30.12 in Calm     95 % 0.01 in 37.0 W/m2 OVC
08:30 39.9 °F 38.6 °F 30.12 in Calm     95 % 0.01 in 32.0 W/m2 OVC
08:35 39.9 °F 38.6 °F 30.12 in NNE 2.3 mph 3.5 mph 95 % 0.01 in 37.0 W/m2 OVC
08:40 40.0 °F 38.7 °F 30.12 in NNE 0.3 mph 2.3 mph 95 % 0.01 in 49.0 W/m2 OVC
08:45 40.1 °F 39.1 °F 30.12 in Calm     96 % 0.01 in 54.0 W/m2 OVC
08:50 40.1 °F 39.1 °F 30.12 in NNE 2.7 mph 3.5 mph 96 % 0.01 in 44.0 W/m2 OVC
08:55 40.1 °F 39.1 °F 30.12 in NNE 2.4 mph 3.5 mph 96 % 0.01 in 49.0 W/m2 OVC
09:00 40.0 °F 38.7 °F 30.12 in NNE 0.6 mph 2.3 mph 95 % 0.01 in 67.0 W/m2 OVC
09:05 40.0 °F 38.7 °F 30.11 in Calm     95 % 0.01 in 58.0 W/m2 OVC
09:10 40.0 °F 38.7 °F 30.11 in Calm     95 % 0.00 in 62.0 W/m2 OVC
09:15 40.1 °F 39.1 °F 30.12 in NNE 1.9 mph 3.5 mph 96 % 0.00 in 62.0 W/m2 OVC
09:20 40.0 °F 38.7 °F 30.12 in Calm     95 % 0.00 in 47.0 W/m2 OVC
09:25 40.0 °F 38.7 °F 30.12 in Calm     95 % 0.00 in 56.0 W/m2 OVC
09:30 40.2 °F 39.2 °F 30.12 in Calm     96 % 0.00 in 53.0 W/m2 OVC
09:35 40.2 °F 39.2 °F 30.12 in Calm     96 % 0.00 in 67.0 W/m2 OVC
09:40 40.1 °F 39.1 °F 30.12 in NNE 0.5 mph 2.0 mph 96 % 0.00 in 63.0 W/m2 OVC
09:45 40.2 °F 39.2 °F 30.12 in NNE 1.3 mph 2.3 mph 96 % 0.00 in 74.0 W/m2 OVC
09:50 40.0 °F 38.7 °F 30.12 in NNE 0.1 mph 2.3 mph 95 % 0.00 in 70.0 W/m2 OVC
09:55 40.0 °F 39.0 °F 30.12 in Calm     96 % 0.00 in 81.0 W/m2 OVC
10:00 40.0 °F 39.0 °F 30.11 in Calm     96 % 0.00 in 76.0 W/m2 OVC
10:05 40.2 °F 39.2 °F 30.11 in Calm     96 % 0.00 in 81.0 W/m2 OVC
10:10 40.3 °F 39.3 °F 30.11 in Calm     96 % 0.00 in 107.0 W/m2 OVC
10:15 40.3 °F 39.3 °F 30.11 in Calm     96 % 0.00 in 109.0 W/m2 OVC
10:20 40.6 °F 39.5 °F 30.11 in Calm     96 % 0.00 in 98.0 W/m2 OVC
10:25 40.7 °F 39.6 °F 30.11 in Calm     96 % 0.00 in 77.0 W/m2 OVC
10:30 40.4 °F 39.4 °F 30.10 in Calm     96 % 0.00 in 81.0 W/m2 OVC
10:35 40.5 °F 39.4 °F 30.10 in Calm     96 % 0.00 in 100.0 W/m2 OVC
10:38 40.6 °F 39.5 °F 30.10 in Calm     96 % 0.00 in 114.0 W/m2 OVC
10:43 40.8 °F 39.7 °F 30.10 in NNE 1.2 mph 3.5 mph 96 % 0.00 in 130.0 W/m2 OVC
10:48 40.8 °F 39.7 °F 30.10 in Calm     96 % 0.00 in 86.0 W/m2 OVC
10:53 40.9 °F 39.8 °F 30.10 in Calm     96 % 0.00 in 197.0 W/m2 BKN
10:58 41.1 °F 40.0 °F 30.09 in Calm     96 % 0.00 in 104.0 W/m2 OVC
11:03 41.3 °F 40.2 °F 30.10 in Calm     96 % 0.00 in 229.0 W/m2 BKN
11:08 41.6 °F 40.5 °F 30.09 in Calm     96 % 0.00 in 229.0 W/m2 BKN
11:13 42.0 °F 40.9 °F 30.09 in Calm     96 % 0.00 in 313.0 W/m2 BKN
11:18 41.8 °F 40.7 °F 30.09 in NNE 1.7 mph 3.5 mph 96 % 0.00 in 169.0 W/m2 OVC
11:23 42.0 °F 40.9 °F 30.08 in NNE 1.8 mph 3.5 mph 96 % 0.00 in 162.0 W/m2 BKN
11:28 41.8 °F 40.7 °F 30.09 in Calm     96 % 0.00 in 204.0 W/m2 BKN
11:33 41.8 °F 40.7 °F 30.09 in Calm     96 % 0.00 in 204.0 W/m2 BKN
11:38 42.1 °F 41.0 °F 30.08 in Calm     96 % 0.00 in 178.0 W/m2 BKN
11:43 42.4 °F 41.3 °F 30.08 in Calm     96 % 0.00 in 297.0 W/m2 BKN
11:48 42.9 °F 41.8 °F 30.07 in NNE 1.5 mph 2.3 mph 96 % 0.00 in 271.0 W/m2 BKN
11:53 43.0 °F 41.9 °F 30.07 in NNE 1.2 mph 3.5 mph 96 % 0.00 in 204.0 W/m2 BKN
11:58 43.1 °F 42.0 °F 30.07 in NNE 1.2 mph 2.3 mph 96 % 0.00 in 199.0 W/m2 BKN
12:03 42.9 °F 41.8 °F 30.07 in NNE 1.4 mph 3.5 mph 96 % 0.00 in 192.0 W/m2 OVC
12:08 43.0 °F 41.9 °F 30.07 in NNE 0.9 mph 2.3 mph 96 % 0.00 in 213.0 W/m2 BKN
12:13 43.1 °F 42.0 °F 30.07 in NNE 1.2 mph 2.3 mph 96 % 0.00 in 216.0 W/m2 BKN
12:18 43.3 °F 42.2 °F 30.07 in NNE 1.5 mph 3.5 mph 96 % 0.00 in 243.0 W/m2 BKN
12:23 43.7 °F 42.6 °F 30.07 in NNE 0.2 mph 2.0 mph 96 % 0.00 in 264.0 W/m2 BKN
12:28 44.2 °F 43.1 °F 30.07 in North 1.1 mph 3.5 mph 96 % 0.00 in 306.0 W/m2 BKN
12:33 44.5 °F 43.4 °F 30.07 in North 0.6 mph 2.0 mph 96 % 0.00 in 378.0 W/m2 BKN
12:38 44.7 °F 43.6 °F 30.07 in Calm     96 % 0.00 in 283.0 W/m2 BKN
12:43 44.6 °F 43.5 °F 30.07 in Calm     96 % 0.00 in 241.0 W/m2 BKN
12:44 44.6 °F 43.5 °F 30.07 in Calm     96 % 0.00 in 227.0 W/m2 BKN
12:49 44.7 °F 43.4 °F 30.07 in North 1.0 mph 3.5 mph 95 % 0.00 in 188.0 W/m2 OVC
12:54 44.9 °F 43.8 °F 30.07 in North 0.3 mph 1.2 mph 96 % 0.00 in 190.0 W/m2 OVC
12:59 45.4 °F 44.3 °F 30.07 in North 0.5 mph 3.5 mph 96 % 0.00 in 200.0 W/m2 OVC
13:04 45.7 °F 44.6 °F 30.07 in Calm     96 % 0.00 in 199.0 W/m2 OVC
13:09 45.7 °F 44.4 °F 30.08 in NNW 1.9 mph 3.5 mph 95 % 0.00 in 172.0 W/m2 OVC
13:14 45.4 °F 44.1 °F 30.07 in Calm     95 % 0.00 in 176.0 W/m2 OVC
13:19 45.6 °F 44.3 °F 30.07 in Calm     95 % 0.00 in 165.0 W/m2 OVC
13:24 45.7 °F 44.4 °F 30.07 in NNW 1.4 mph 3.5 mph 95 % 0.00 in 149.0 W/m2 OVC
13:29 46.2 °F 44.8 °F 30.07 in NW 1.2 mph 3.5 mph 95 % 0.00 in 139.0 W/m2 OVC
13:34 46.5 °F 45.1 °F 30.07 in NW 2.0 mph 3.5 mph 95 % 0.00 in 160.0 W/m2 OVC
13:39 46.5 °F 45.1 °F 30.06 in NW 2.7 mph 3.5 mph 95 % 0.00 in 153.0 W/m2 OVC
13:44 46.6 °F 45.2 °F 30.06 in Calm     95 % 0.00 in 162.0 W/m2 OVC
13:49 46.7 °F 45.1 °F 30.06 in NW 1.6 mph 4.6 mph 94 % 0.00 in 165.0 W/m2 OVC
13:54 46.6 °F 45.0 °F 30.06 in NW 1.4 mph 4.0 mph 94 % 0.00 in 149.0 W/m2 OVC
13:59 46.7 °F 45.1 °F 30.05 in NW 1.4 mph 3.5 mph 94 % 0.00 in 134.0 W/m2 OVC
14:04 46.9 °F 45.3 °F 30.05 in NW 0.1 mph 3.5 mph 94 % 0.00 in 181.0 W/m2 OVC
14:09 47.0 °F 45.4 °F 30.05 in Calm     94 % 0.00 in 225.0 W/m2 BKN
14:14 47.4 °F 45.8 °F 30.05 in NW 0.1 mph 1.0 mph 94 % 0.00 in 287.0 W/m2 BKN
14:19 47.8 °F 45.9 °F 30.05 in Calm     93 % 0.00 in 165.0 W/m2 BKN
14:24 47.6 °F 45.7 °F 30.04 in Calm     93 % 0.00 in 288.0 W/m2 BKN
14:29 47.8 °F 45.9 °F 30.04 in WNW 0.9 mph 2.0 mph 93 % 0.00 in 283.0 W/m2 BKN
14:34 48.3 °F 46.4 °F 30.04 in WNW 2.1 mph 4.6 mph 93 % 0.00 in 279.0 W/m2 BKN
14:39 48.6 °F 46.7 °F 30.04 in SW 1.6 mph 3.5 mph 93 % 0.00 in 213.0 W/m2 BKN
14:44 48.7 °F 46.5 °F 30.04 in SW 1.2 mph 3.5 mph 92 % 0.00 in 311.0 W/m2 BKN
14:49 48.8 °F 46.6 °F 30.04 in Calm     92 % 0.00 in 220.0 W/m2 BKN
14:54 48.9 °F 46.4 °F 30.03 in West 1.0 mph 2.3 mph 91 % 0.00 in 220.0 W/m2 BKN
14:59 49.0 °F 46.5 °F 30.03 in Calm   1.2 mph 91 % 0.00 in 274.0 W/m2 BKN
15:04 49.2 °F 46.7 °F 30.03 in West 1.6 mph 3.5 mph 91 % 0.00 in 267.0 W/m2 BKN
15:10 49.5 °F 47.0 °F 30.03 in SW 0.6 mph 4.6 mph 91 % 0.00 in 276.0 W/m2 BKN
15:15 49.5 °F 46.7 °F 30.02 in SW 0.1 mph 2.0 mph 90 % 0.00 in 278.0 W/m2 BKN
15:20 49.5 °F 46.7 °F 30.02 in SSW 2.4 mph 4.0 mph 90 % 0.00 in 223.0 W/m2 BKN
15:25 49.7 °F 46.9 °F 30.03 in SSW 5.0 mph 6.0 mph 90 % 0.00 in 188.0 W/m2 OVC
15:29 49.7 °F 46.9 °F 30.02 in SW 0.5 mph 3.5 mph 90 % 0.00 in 171.0 W/m2 BKN
15:33 50.0 °F 47.2 °F 30.02 in SSW 3.7 mph 5.8 mph 90 % 0.00 in 234.0 W/m2 BKN
15:34 50.0 °F 47.2 °F 30.02 in SSW 3.7 mph 5.0 mph 90 % 0.00 in 257.0 W/m2 BKN
15:36 50.0 °F 47.2 °F 30.02 in South 3.8 mph 5.8 mph 90 % 0.00 in 265.0 W/m2 BKN
15:37 50.0 °F 47.2 °F 30.02 in South 4.1 mph 5.8 mph 90 % 0.00 in 265.0 W/m2 BKN
15:40 49.9 °F 47.1 °F 30.02 in SSW 4.8 mph 6.0 mph 90 % 0.00 in 281.0 W/m2 SCT
15:45 50.1 °F 47.3 °F 30.01 in SSW 2.9 mph 4.0 mph 90 % 0.00 in 403.0 W/m2 FEW
15:48 50.4 °F 47.6 °F 30.01 in SSW 3.2 mph 4.0 mph 90 % 0.00 in 475.0 W/m2 FEW
15:51 50.6 °F 47.8 °F 30.01 in SSW 4.5 mph 5.8 mph 90 % 0.00 in 513.0 W/m2 CLR
15:53 50.8 °F 48.0 °F 30.01 in SSW 3.3 mph 4.6 mph 90 % 0.00 in 541.0 W/m2 CLR
15:57 50.9 °F 47.8 °F 30.00 in SSW 0.9 mph 5.0 mph 89 % 0.00 in 464.0 W/m2 CLR
15:59 51.0 °F 47.9 °F 30.00 in SW 4.0 mph 5.8 mph 89 % 0.00 in 466.0 W/m2 CLR
16:04 51.6 °F 48.5 °F 30.00 in SSW 1.5 mph 3.5 mph 89 % 0.00 in 309.0 W/m2 FEW
16:09 51.7 °F 48.3 °F 30.00 in Calm   1.0 mph 88 % 0.00 in 313.0 W/m2 SCT
16:14 51.9 °F 48.5 °F 30.01 in Calm     88 % 0.00 in 223.0 W/m2 BKN
16:19 52.1 °F 48.3 °F 30.01 in West 1.2 mph 3.5 mph 87 % 0.00 in 207.0 W/m2 BKN
16:24 52.4 °F 48.6 °F 30.01 in Calm     87 % 0.00 in 179.0 W/m2 BKN
16:29 52.4 °F 48.3 °F 30.01 in West 1.9 mph 3.5 mph 86 % 0.00 in 169.0 W/m2 BKN
16:34 52.4 °F 48.3 °F 30.01 in Calm   1.2 mph 86 % 0.00 in 188.0 W/m2 BKN
16:39 52.8 °F 48.7 °F 30.00 in West 0.4 mph 2.3 mph 86 % 0.00 in 193.0 W/m2 BKN
16:44 53.1 °F 49.0 °F 30.00 in West 1.3 mph 3.5 mph 86 % 0.00 in 172.0 W/m2 BKN
16:49 53.1 °F 49.0 °F 30.00 in West 0.8 mph 3.5 mph 86 % 0.00 in 179.0 W/m2 BKN
16:54 53.5 °F 49.4 °F 30.00 in West 2.6 mph 3.5 mph 86 % 0.00 in 221.0 W/m2 SCT
16:59 53.5 °F 49.4 °F 30.00 in West 2.1 mph 5.8 mph 86 % 0.00 in 272.0 W/m2 FEW
17:04 54.1 °F 50.0 °F 29.99 in West 2.9 mph 6.9 mph 86 % 0.00 in 330.0 W/m2 CLR
17:09 54.4 °F 50.0 °F 30.00 in West 1.3 mph 3.5 mph 85 % 0.00 in 207.0 W/m2 FEW
17:14 54.4 °F 50.0 °F 30.00 in West 0.2 mph 4.0 mph 85 % 0.00 in 223.0 W/m2 FEW
17:19 54.3 °F 49.6 °F 29.99 in WSW 1.7 mph 3.5 mph 84 % 0.00 in 211.0 W/m2 FEW
17:24 54.3 °F 49.6 °F 29.99 in Calm     84 % 0.00 in 192.0 W/m2 SCT
17:29 54.4 °F 49.7 °F 29.99 in Calm     84 % 0.00 in 146.0 W/m2 SCT
17:34 54.4 °F 49.7 °F 29.99 in WNW 1.1 mph 4.0 mph 84 % 0.00 in 128.0 W/m2 BKN
17:39 54.6 °F 49.9 °F 29.99 in Calm     84 % 0.00 in 199.0 W/m2 FEW
17:44 54.6 °F 49.9 °F 29.99 in Calm     84 % 0.00 in 102.0 W/m2 BKN
17:47 54.4 °F 49.7 °F 29.99 in Calm     84 % 0.00 in 105.0 W/m2 BKN
17:52 54.2 °F 49.5 °F 29.99 in Calm     84 % 0.00 in 102.0 W/m2 BKN
17:57 54.2 °F 49.5 °F 29.98 in Calm     84 % 0.00 in 135.0 W/m2 SCT
18:02 54.3 °F 49.9 °F 29.98 in WNW 0.6 mph 3.5 mph 85 % 0.00 in 149.0 W/m2 FEW
18:07 54.4 °F 50.0 °F 29.98 in Calm     85 % 0.00 in 171.0 W/m2 CLR
18:12 54.6 °F 50.2 °F 29.98 in Calm     85 % 0.00 in 160.0 W/m2 CLR
18:17 54.6 °F 50.2 °F 29.98 in West 0.3 mph 2.3 mph 85 % 0.00 in 146.0 W/m2 CLR
18:22 54.5 °F 50.1 °F 29.98 in Calm     85 % 0.00 in 121.0 W/m2 CLR
18:27 54.5 °F 50.1 °F 29.98 in Calm     85 % 0.00 in 100.0 W/m2 FEW
18:32 54.6 °F 50.2 °F 29.98 in Calm     85 % 0.00 in 88.0 W/m2 CLR
18:37 54.7 °F 50.3 °F 29.98 in Calm     85 % 0.00 in 70.0 W/m2 FEW
18:42 54.6 °F 50.2 °F 29.98 in Calm     85 % 0.00 in 60.0 W/m2 FEW
18:47 54.6 °F 50.2 °F 29.98 in Calm     85 % 0.00 in 46.0 W/m2 FEW
18:52 54.4 °F 50.0 °F 29.98 in Calm     85 % 0.00 in 35.0 W/m2 SCT
18:57 54.2 °F 49.8 °F 29.97 in Calm     85 % 0.00 in 28.0 W/m2 SCT
19:02 54.0 °F 49.6 °F 29.98 in Calm     85 % 0.00 in 19.0 W/m2 SCT
19:07 53.8 °F 49.4 °F 29.98 in Calm     85 % 0.00 in 12.0 W/m2 SCT
19:12 53.7 °F 49.6 °F 29.98 in Calm     86 % 0.00 in 7.0 W/m2 BKN
19:17 53.4 °F 49.3 °F 29.98 in Calm     86 % 0.00 in 0.0 W/m2 OVC
19:22 52.9 °F 48.8 °F 29.98 in Calm     86 % 0.00 in 0.0 W/m2 CLR
19:27 52.5 °F 48.7 °F 29.98 in Calm     87 % 0.00 in 0.0 W/m2 CLR
19:32 52.1 °F 48.3 °F 29.98 in Calm     87 % 0.00 in 0.0 W/m2 CLR
19:37 51.8 °F 48.4 °F 29.98 in Calm     88 % 0.00 in 0.0 W/m2 CLR
19:42 51.4 °F 48.0 °F 29.99 in Calm     88 % 0.00 in 0.0 W/m2 CLR
19:47 51.2 °F 48.1 °F 29.98 in Calm     89 % 0.00 in 0.0 W/m2 CLR
19:52 50.9 °F 47.8 °F 29.98 in Calm     89 % 0.00 in 0.0 W/m2 CLR
19:57 50.6 °F 47.5 °F 29.98 in Calm     89 % 0.00 in 0.0 W/m2 CLR
20:02 50.5 °F 47.7 °F 29.98 in Calm     90 % 0.00 in 0.0 W/m2 CLR
20:07 50.2 °F 47.4 °F 29.99 in Calm     90 % 0.00 in 0.0 W/m2 CLR
20:12 50.2 °F 47.7 °F 29.99 in Calm     91 % 0.00 in 0.0 W/m2 CLR
20:17 50.1 °F 47.3 °F 29.99 in Calm     90 % 0.00 in 0.0 W/m2 CLR
20:22 49.7 °F 46.9 °F 29.99 in Calm     90 % 0.00 in 0.0 W/m2 CLR
20:27 49.6 °F 47.1 °F 29.99 in Calm     91 % 0.00 in 0.0 W/m2 CLR
20:33 49.4 °F 46.9 °F 29.99 in Calm     91 % 0.00 in 0.0 W/m2 CLR
20:38 49.5 °F 47.0 °F 30.00 in Calm     91 % 0.00 in 0.0 W/m2 CLR
20:43 49.2 °F 46.7 °F 29.99 in Calm     91 % 0.00 in 0.0 W/m2 CLR
20:48 49.2 °F 47.0 °F 29.99 in Calm     92 % 0.00 in 0.0 W/m2 CLR
20:53 49.5 °F 47.3 °F 29.99 in Calm     92 % 0.00 in 0.0 W/m2 CLR
20:58 49.4 °F 46.9 °F 30.00 in Calm     91 % 0.00 in 0.0 W/m2 CLR
21:03 49.2 °F 47.0 °F 30.00 in Calm     92 % 0.00 in 0.0 W/m2 CLR
21:08 49.1 °F 46.9 °F 30.00 in Calm     92 % 0.00 in 0.0 W/m2 CLR
21:13 49.2 °F 47.0 °F 30.00 in Calm     92 % 0.00 in 0.0 W/m2 CLR
21:18 48.7 °F 46.5 °F 30.00 in Calm     92 % 0.00 in 0.0 W/m2 CLR
21:23 48.9 °F 47.0 °F 30.00 in Calm     93 % 0.00 in 0.0 W/m2 CLR
21:28 48.9 °F 46.7 °F 30.00 in Calm     92 % 0.00 in 0.0 W/m2 CLR
21:33 48.6 °F 46.7 °F 30.00 in Calm     93 % 0.00 in 0.0 W/m2 CLR
21:38 48.8 °F 46.9 °F 30.00 in Calm     93 % 0.00 in 0.0 W/m2 CLR
21:43 48.9 °F 47.0 °F 30.00 in Calm     93 % 0.00 in 0.0 W/m2 CLR
21:48 48.7 °F 46.5 °F 30.00 in Calm     92 % 0.00 in 0.0 W/m2 CLR
21:53 48.5 °F 46.6 °F 30.00 in Calm     93 % 0.00 in 0.0 W/m2 CLR
21:58 48.4 °F 46.5 °F 30.00 in Calm     93 % 0.00 in 0.0 W/m2 CLR
22:03 48.3 °F 46.4 °F 30.00 in Calm     93 % 0.00 in 0.0 W/m2 CLR
22:08 48.4 °F 46.5 °F 30.00 in Calm     93 % 0.00 in 0.0 W/m2 CLR
22:13 48.6 °F 46.7 °F 30.00 in Calm     93 % 0.00 in 0.0 W/m2 CLR
22:18 48.5 °F 46.6 °F 30.00 in Calm     93 % 0.00 in 0.0 W/m2 CLR
22:23 48.4 °F 46.5 °F 30.00 in Calm     93 % 0.00 in 0.0 W/m2 CLR
22:28 48.3 °F 46.4 °F 30.00 in Calm     93 % 0.00 in 0.0 W/m2 CLR
22:33 48.9 °F 47.2 °F 30.00 in Calm     94 % 0.00 in 0.0 W/m2 CLR
22:34 48.9 °F 47.2 °F 30.00 in Calm     94 % 0.00 in 0.0 W/m2 CLR
22:39 49.2 °F 47.5 °F 29.99 in Calm     94 % 0.00 in 0.0 W/m2 CLR
22:44 49.2 °F 47.3 °F 29.99 in Calm     93 % 0.00 in 0.0 W/m2 CLR
22:49 49.3 °F 47.4 °F 29.99 in Calm     93 % 0.00 in 0.0 W/m2 CLR
22:54 49.3 °F 47.4 °F 29.99 in Calm     93 % 0.00 in 0.0 W/m2 CLR
22:59 49.2 °F 47.3 °F 30.00 in Calm     93 % 0.00 in 0.0 W/m2 CLR
23:04 49.3 °F 47.4 °F 29.99 in Calm     93 % 0.00 in 0.0 W/m2 CLR
23:09 49.2 °F 47.3 °F 29.99 in Calm     93 % 0.00 in 0.0 W/m2 CLR
23:14 49.2 °F 47.3 °F 29.99 in Calm     93 % 0.00 in 0.0 W/m2 CLR
23:19 49.1 °F 47.2 °F 29.99 in NW 1.2 mph 3.5 mph 93 % 0.00 in 0.0 W/m2 CLR
23:24 49.0 °F 47.1 °F 29.99 in Calm     93 % 0.00 in 0.0 W/m2 CLR
23:29 48.7 °F 46.8 °F 29.99 in Calm     93 % 0.00 in 0.0 W/m2 CLR
23:34 48.5 °F 46.6 °F 29.99 in Calm     93 % 0.00 in 0.0 W/m2 CLR
23:39 48.6 °F 46.7 °F 29.99 in Calm     93 % 0.00 in 0.0 W/m2 CLR
23:44 48.6 °F 46.7 °F 29.99 in Calm     93 % 0.00 in 0.0 W/m2 CLR
23:49 48.5 °F 46.6 °F 29.98 in Calm     93 % 0.00 in 0.0 W/m2 CLR
23:54 48.6 °F 46.7 °F 29.99 in Calm     93 % 0.00 in 0.0 W/m2 CLR
23:59 48.6 °F 46.7 °F 29.99 in Calm     93 % 0.00 in 0.0 W/m2 CLR
Air Products Campus Weather
Compliments of Weather Underground - 3.5 mb